Orbital Elements at Epoch 2459200.5 (2020-Dec-17.0) TDB
Reference: JPL 21 (heliocentric ecliptic J2000)
Element | Value | Uncertainty (1-sigma) | Units |
e | .1601280165532288 | 5.0017e-08 | |
a | 2.725970663446615 | 1.7205e-08 | au |
q | 2.289466387926619 | 1.3748e-07 | au |
i | 9.284465790751259 | 6.4919e-06 | deg |
node | 186.9916358104291 | 2.3231e-05 | deg |
peri | 133.7904192621878 | 2.7701e-05 | deg |
M | 279.3087281230211 | 1.5841e-05 | deg |
tp | 2459568.971798077249 (2021-Dec-20.47179808) | 7.3632e-05 | TDB |
period | 1643.918161434437 4.50 | 1.5564e-05 4.261e-08 | d yr |
n | .2189890034950852 | 2.0733e-09 | deg/d |
Q | 3.162474938966611 | 1.996e-08 | au |
|
| | Orbit Determination Parameters
Additional Information
|